FW2486 Weather Reports


Display with metric or nautical units.
time (UTC)temp
F
wind
direction
speed
MPH
gust
MPH
rain 1hr
in
rain 24hr
in
rain mn
in
humidity
%
barometer
mb
20260905143036 49 115 1.0 3.0 0.00 0.03 0.00 98 1021.1
20260905141537 48 182 1.0 4.0 0.00 0.03 0.00 98 1021.0
20260905140031 47 143 1.0 3.0 0.00 0.03 0.00 98 1020.9
20260905131534 48 154 2.0 4.0 0.00 0.03 0.00 98 1020.6
20260905130036 49 176 2.0 4.0 0.00 0.03 0.00 98 1020.5
20260905124540 49 165 1.0 2.0 0.00 0.04 0.00 98 1020.5
20260905123033 49 165 1.0 4.0 0.00 0.04 0.00 98 1020.6
20260905121531 49 160 1.0 3.0 0.00 0.04 0.00 98 1020.5
20260905120107 49 148 1.0 3.0 0.00 0.04 0.00 98 1020.5
20260905114539 49 161 0.0 3.0 0.00 0.04 0.00 98 1020.4
20260905113105 49 157 0.0 0.0 0.00 0.04 0.00 98 1020.3
20260905111537 49 157 0.0 1.0 0.00 0.04 0.00 98 1020.3
20260905110036 49 179 1.0 4.0 0.00 0.04 0.00 97 1020.3
20260905101557 50 202 0.0 0.0 0.00 0.05 0.00 97 1020.2
20260905100032 50 202 0.0 0.0 0.00 0.05 0.00 97 1020.3
20260905094535 50 202 0.0 1.0 0.00 0.05 0.00 97 1020.4
20260905093034 50 202 0.0 0.0 0.00 0.05 0.00 97 1020.4
20260905084643 50 94 0.0 2.0 0.00 0.05 0.00 96 1020.1
20260905080034 51 177 1.0 3.0 0.00 0.05 0.00 96 1020.0
20260905074531 51 201 1.0 3.0 0.00 0.05 0.00 96 1019.9
20260905073109 51 161 0.0 2.0 0.00 0.05 0.00 96 1019.7
20260905070030 52 156 3.0 4.0 0.03 0.05 0.00 95 1019.5
20260905064535 52 127 3.0 5.0 0.03 0.05 0.05 95 1019.3
20260905063035 53 314 0.0 3.0 0.03 0.05 0.04 95 1019.2
20260905061533 53 194 0.0 2.0 0.02 0.04 0.02 94 1019.5
20260905060037 53 194 2.0 5.0 0.00 0.02 0.02 94 1019.6
20260905054535 53 155 3.0 5.0 0.00 0.02 0.02 94 1019.5
20260905053031 53 113 0.0 4.0 0.00 0.02 0.02 94 1019.3
20260905051534 53 168 1.0 4.0 0.00 0.02 0.02 94 1019.4
20260905050035 53 157 2.0 4.0 0.00 0.02 0.02 93 1019.4
20260905044531 53 198 1.0 3.0 0.00 0.02 0.02 93 1019.2
20260905043107 54 201 0.0 3.0 0.00 0.02 0.02 93 1019.1
20260905040035 53 172 0.0 6.0 0.00 0.02 0.02 93 1018.9
20260905034532 53 148 0.0 4.0 0.00 0.02 0.02 91 1018.8
20260905033034 53 96 0.0 1.0 0.00 0.02 0.02 90 1018.6
20260905031534 55 110 0.0 2.0 0.00 0.02 0.02 90 1018.4
20260905024535 57 230 0.0 2.0 0.00 0.02 0.02 88 1018.3
20260905023037 58 262 1.0 2.0 0.00 0.02 0.02 86 1018.3
20260905021533 58 254 1.0 2.0 0.00 0.02 0.02 83 1018.3
20260905020034 59 241 0.0 2.0 0.00 0.02 0.02 79 1018.1
20260905014531 62 219 2.0 4.0 0.00 0.02 0.02 78 1017.8
20260905013141 62 208 2.0 5.0 0.00 0.02 0.02 80 1017.7
20260905011632 62 167 2.0 6.0 0.00 0.02 0.02 81 1017.6
20260905010035 62 191 1.0 4.0 0.00 0.02 0.02 79 1017.6
20260905003107 63 195 2.0 6.0 0.00 0.02 0.02 80 1017.3
20260905001534 61 189 3.0 6.0 0.00 0.02 0.02 80 1017.4
20260905000032 61 197 3.0 7.0 0.00 0.02 0.02 81 1017.4
20260904234537 61 189 3.0 8.0 0.00 0.02 0.02 80 1017.5
20260904233035 61 200 2.0 6.0 0.00 0.02 0.02 79 1017.4
20260904231534 61 201 3.0 8.0 0.00 0.02 0.02 78 1017.4
20260904230035 62 220 3.0 7.0 0.00 0.02 0.02 78 1017.4
20260904224533 62 234 2.0 5.0 0.00 0.02 0.02 78 1017.3
20260904223142 62 197 1.0 5.0 0.00 0.02 0.02 78 1017.3
20260904221530 62 175 2.0 6.0 0.00 0.02 0.02 77 1017.2
20260904220030 62 202 3.0 9.0 0.00 0.02 0.02 79 1017.2
20260904214534 61 209 4.0 8.0 0.00 0.02 0.02 80 1017.1
20260904213036 61 206 4.0 10.0 0.00 0.02 0.02 78 1017.1
20260904211536 61 292 2.0 4.0 0.00 0.02 0.02 78 1017.0
20260904210034 61 328 3.0 5.0 0.00 0.02 0.02 76 1016.8
20260904204536 61 337 3.0 9.0 0.00 0.02 0.02 75 1016.8
20260904200036 65 337 5.0 11.0 0.00 0.02 0.02 77 1016.9
20260904194535 63 27 2.0 7.0 0.00 0.02 0.02 80 1017.1
20260904193032 62 89 1.0 3.0 0.00 0.02 0.02 82 1017.2
20260904190036 60 130 2.0 4.0 0.00 0.02 0.02 85 1017.4
20260904184535 59 95 2.0 5.0 0.00 0.02 0.02 85 1017.4
20260904181533 58 13 2.0 5.0 0.00 0.02 0.02 92 1017.3
20260904174530 55 46 0.0 0.0 0.00 0.02 0.02 95 1017.3
20260904173031 54 39 1.0 2.0 0.00 0.02 0.02 95 1017.3
20260904171535 54 90 0.0 2.0 0.00 0.02 0.02 96 1017.3
20260904170035 54 101 1.0 4.0 0.00 0.02 0.02 97 1017.3
20260904164532 53 344 0.0 3.0 0.00 0.02 0.02 98 1017.2
20260904163035 52 292 0.0 1.0 0.00 0.02 0.02 98 1017.2
20260904161607 51 292 0.0 1.0 0.00 0.02 0.02 99 1017.1
20260904160109 50 292 1.0 2.0 0.00 0.02 0.02 98 1017.1
20260904154534 50 334 2.0 4.0 0.00 0.03 0.02 98 1017.0
20260904151534 49 180 0.0 2.0 0.00 0.03 0.02 98 1016.7
20260904150029 49 129 0.0 3.0 0.00 0.03 0.02 98 1016.5